Weather reports worldwide

Advertisment
Catania/Fontanarossa, Italy (16460): temperature & dewpoint: 11.07.2019 07:00:00 - 17.07.2019 07:00:00 (CEST)Catania/Fontanarossa, Italy (16460): wind speed: 11.07.2019 07:00:00 - 17.07.2019 07:00:00 (CEST)Catania/Fontanarossa, Italy (16460): wind direction: 11.07.2019 07:00:00 - 17.07.2019 07:00:00 (CEST)Catania/Fontanarossa, Italy (16460): reduced air pressure: 11.07.2019 07:00:00 - 17.07.2019 07:00:00 (CEST)Catania/Fontanarossa, Italy (16460): visibility: 11.07.2019 07:00:00 - 17.07.2019 07:00:00 (CEST)Catania/Fontanarossa, Italy (16460): precipitation: 11.07.2019 07:00:00 - 17.07.2019 07:00:00 (CEST)
Date & Time tt [°C] td [°C] ff [km/h] ff [kn] dd ppp [hPa] vv [km] rr [mm]
17.07.2019 07:00:00 19,0 16,0 8 4 W - 10 -
17.07.2019 06:00:00 18,0 15,0 9 5 WSW - 10 -
17.07.2019 05:00:00 20,1 15,8 11 6 SW 1011,1 10 0,0
17.07.2019 04:00:00 19,0 17,0 5 3 SW - 10 -
17.07.2019 03:00:00 19,0 17,0 11 6 W - 10 -
17.07.2019 02:00:00 20,2 17,4 9 5 W 1010,8 10 -
17.07.2019 01:00:00 22,0 17,0 5 3 - - 10 -
17.07.2019 00:00:00 22,0 17,0 11 6 SW - 10 -
16.07.2019 23:00:00 22,5 17,3 9 5 SSW 1009,9 10 0,0
16.07.2019 22:00:00 23,0 18,0 15 8 S - 10 -
16.07.2019 21:00:00 23,0 18,0 5 3 S - 10 -
16.07.2019 20:00:00 23,9 18,0 5 3 ESE 1008,5 10 -
16.07.2019 19:00:00 24,0 18,0 5 3 ESE - 10 -
16.07.2019 18:00:00 25,0 18,0 9 5 SE - 10 -
16.07.2019 17:00:00 24,9 16,3 11 6 ESE 1006,4 10 0,0
16.07.2019 16:00:00 23,0 20,0 24 13 ENE - 8 -
16.07.2019 15:00:00 24,0 19,0 28 15 NE - 8 -
16.07.2019 14:00:00 22,6 18,3 34 18 NE 1005,4 7 -
16.07.2019 13:00:00 27,0 18,0 22 12 E - 10 -
16.07.2019 12:00:00 29,0 17,0 13 7 NE - 10 -
16.07.2019 11:00:00 29,0 12,5 22 12 W 1004,2 10 0,0
16.07.2019 10:00:00 27,0 17,0 21 11 W - 10 -
16.07.2019 09:00:00 24,0 19,0 16 9 W - 10 -
16.07.2019 08:00:00 23,4 20,8 11 6 W 1004,9 10 -
16.07.2019 07:00:00 21,0 21,0 8 4 W - 6 -
16.07.2019 06:00:00 21,0 21,0 9 5 SW - 10 -
16.07.2019 05:00:00 21,8 21,8 9 5 W 1005,5 10 0,0
16.07.2019 04:00:00 22,0 22,0 8 4 W - 10 -
16.07.2019 03:00:00 23,0 23,0 9 5 W - 10 -
16.07.2019 02:00:00 22,9 22,3 8 4 W 1006,5 10 -
16.07.2019 01:00:00 24,0 23,0 8 4 ENE - 10 -
16.07.2019 00:00:00 24,0 23,0 13 7 ENE - 10 -
15.07.2019 23:00:00 23,0 23,0 16 9 E - 10 -
15.07.2019 22:00:00 23,0 22,0 15 8 NE - 8 -
15.07.2019 21:00:00 25,0 24,0 18 10 ENE - 10 -
15.07.2019 20:00:00 24,8 22,6 18 10 ENE 1006,4 10 -
15.07.2019 19:00:00 27,0 22,0 15 8 NNE - 10 -
15.07.2019 18:00:00 26,0 22,0 11 6 E - 10 -
15.07.2019 17:00:00 26,6 22,1 16 9 SE 1006,0 10 0,0
15.07.2019 16:00:00 27,0 22,0 15 8 ESE - 10 -
15.07.2019 15:00:00 26,0 23,0 21 11 ENE - 10 -
15.07.2019 14:00:00 25,8 22,1 24 13 ENE 1006,7 10 -
15.07.2019 13:00:00 26,0 21,0 24 13 ENE - 10 -
15.07.2019 12:00:00 28,0 21,0 24 13 E - 10 -
15.07.2019 11:00:00 26,6 21,0 22 12 E 1007,3 10 0,0
15.07.2019 10:00:00 28,0 22,0 22 12 ESE - 10 -
15.07.2019 09:00:00 27,0 23,0 15 8 SE - 10 -
15.07.2019 08:00:00 26,4 22,6 15 8 SSE 1007,1 10 -
15.07.2019 07:00:00 26,0 22,0 15 8 SE - 10 -
15.07.2019 06:00:00 26,0 23,0 15 8 SE - 10 -
15.07.2019 05:00:00 25,6 22,5 16 9 SE 1007,9 10 0,0
15.07.2019 04:00:00 26,0 23,0 11 6 SE - 10 -
15.07.2019 03:00:00 26,0 23,0 16 9 ESE - 10 -
15.07.2019 02:00:00 25,9 23,1 18 10 ESE 1007,8 10 -
15.07.2019 01:00:00 26,0 24,0 16 9 ESE - 10 -
15.07.2019 00:00:00 26,0 23,0 13 7 ESE - 10 -
14.07.2019 23:00:00 26,0 23,1 11 6 SE 1009,9 10 0,0
14.07.2019 22:00:00 26,0 23,0 13 7 SE - 10 -
14.07.2019 21:00:00 26,0 23,0 13 7 SE - 10 -
14.07.2019 20:00:00 26,2 22,7 15 8 ESE 1009,0 10 -
14.07.2019 19:00:00 27,0 23,0 21 11 ESE - 10 -
14.07.2019 18:00:00 28,0 23,0 18 10 ESE - 10 -
14.07.2019 17:00:00 27,9 22,6 21 11 E 1009,0 10 0,0
14.07.2019 16:00:00 29,0 23,0 24 13 E - 10 -
14.07.2019 15:00:00 29,0 23,0 28 15 E - 10 -
14.07.2019 14:00:00 29,4 22,9 29 16 E 1009,5 10 -
14.07.2019 13:00:00 30,0 23,0 24 13 E - 10 -
14.07.2019 12:00:00 29,0 21,0 15 8 ESE - 10 -
14.07.2019 11:00:00 28,8 21,9 16 9 E 1009,1 10 0,0
14.07.2019 10:00:00 29,0 20,0 15 8 E - 10 -
14.07.2019 09:00:00 28,0 17,0 8 4 E - 10 -
14.07.2019 08:00:00 26,2 16,7 5 3 WSW 1007,8 10 -
14.07.2019 07:00:00 22,0 15,0 0 0 N - 10 -
14.07.2019 06:00:00 21,0 15,0 4 2 - - 10 -
14.07.2019 05:00:00 20,6 15,0 5 3 SW 1007,8 10 0,0
14.07.2019 04:00:00 22,0 15,0 4 2 - - 10 -
14.07.2019 03:00:00 23,0 16,0 16 9 W - 10 -
14.07.2019 02:00:00 21,3 18,1 11 6 WSW 1008,7 10 -
14.07.2019 01:00:00 24,0 19,0 5 3 W - 10 -
14.07.2019 00:00:00 25,0 20,0 8 4 W - 10 -
13.07.2019 23:00:00 25,8 22,7 4 2 - 1009,2 10 0,0
13.07.2019 22:00:00 26,0 24,0 2 1 - - 10 -
13.07.2019 21:00:00 26,0 23,0 8 4 E - 10 -
13.07.2019 20:00:00 27,6 22,7 9 5 ESE 1008,0 10 -
13.07.2019 19:00:00 29,0 20,0 11 6 E - 10 -
13.07.2019 18:00:00 30,0 17,0 18 10 E - 10 -
13.07.2019 17:00:00 29,6 19,7 22 12 ENE 1008,6 10 0,0
13.07.2019 16:00:00 29,0 21,0 24 13 ENE - 10 -
13.07.2019 15:00:00 29,0 21,0 26 14 ENE - 10 -
13.07.2019 14:00:00 29,5 20,5 22 12 ENE 1010,1 10 -
13.07.2019 13:00:00 29,0 20,0 21 11 E - 10 -
13.07.2019 12:00:00 29,0 19,0 18 10 E - 10 -
13.07.2019 11:00:00 29,1 17,1 21 11 ENE 1011,1 10 0,0
13.07.2019 10:00:00 30,0 17,0 13 7 ENE - 10 -
13.07.2019 09:00:00 29,0 15,0 9 5 W - 10 -
13.07.2019 08:00:00 27,0 16,3 5 3 W 1011,6 10 -
13.07.2019 07:00:00 22,0 20,0 11 6 W - 10 -
13.07.2019 06:00:00 21,0 19,0 5 3 W - 10 -
13.07.2019 05:00:00 21,3 20,4 15 8 W 1011,6 10 0,0
13.07.2019 04:00:00 22,0 21,0 11 6 WSW - 10 -
13.07.2019 03:00:00 23,0 22,0 8 4 W - 10 -
13.07.2019 02:00:00 22,9 21,9 5 3 WNW 1012,3 10 -
13.07.2019 01:00:00 24,0 23,0 4 2 W - 10 -
13.07.2019 00:00:00 25,0 24,0 9 5 ENE - 10 -
12.07.2019 23:00:00 25,8 24,0 13 7 ENE 1012,9 10 0,0
12.07.2019 22:00:00 26,0 24,0 16 9 ENE - 10 -
12.07.2019 21:00:00 27,0 23,0 16 9 ENE - 10 -
12.07.2019 20:00:00 27,0 23,1 22 12 ENE 1011,8 10 -
12.07.2019 19:00:00 28,0 23,0 24 13 ENE - 10 -
12.07.2019 18:00:00 28,0 23,0 24 13 ENE - 10 -
12.07.2019 17:00:00 28,8 22,8 24 13 E 1011,8 10 0,0
12.07.2019 16:00:00 29,0 22,0 22 12 E - 10 -
12.07.2019 15:00:00 29,0 22,0 22 12 E - 10 -
12.07.2019 14:00:00 29,1 21,2 21 11 ESE 1013,0 10 -
12.07.2019 13:00:00 29,0 21,0 16 9 ESE - 10 -
12.07.2019 12:00:00 29,0 20,0 16 9 ESE - 10 -
12.07.2019 11:00:00 28,8 20,3 13 7 E 1013,7 10 0,0
12.07.2019 10:00:00 28,0 20,0 11 6 E - 10 -
12.07.2019 09:00:00 27,0 19,0 5 3 SW - 10 -
12.07.2019 08:00:00 26,1 18,4 4 2 - 1013,6 10 -
12.07.2019 07:00:00 23,0 20,0 5 3 SW - 10 -
12.07.2019 06:00:00 24,0 21,0 8 4 E - 10 -
12.07.2019 05:00:00 25,2 21,5 8 4 NE 1012,6 10 0,0
12.07.2019 04:00:00 26,0 21,0 9 5 ENE - 10 -
12.07.2019 03:00:00 25,0 21,0 13 7 E - 10 -
12.07.2019 02:00:00 25,5 21,2 11 6 ENE 1012,9 10 -
12.07.2019 01:00:00 26,0 24,0 11 6 E - 10 -
12.07.2019 00:00:00 26,0 24,0 11 6 E - 10 -
11.07.2019 23:00:00 25,5 23,2 9 5 E 1012,9 10 0,0
11.07.2019 22:00:00 26,0 23,0 9 5 ESE - 10 -
11.07.2019 21:00:00 26,0 23,0 13 7 ESE - 10 -
11.07.2019 20:00:00 26,5 22,4 16 9 ESE 1012,3 10 -
11.07.2019 19:00:00 28,0 22,0 18 10 ESE - 10 -
11.07.2019 18:00:00 28,0 21,0 22 12 ESE - 10 -
11.07.2019 17:00:00 28,3 21,0 24 13 ESE 1011,6 10 0,0
11.07.2019 16:00:00 29,0 21,0 28 15 ESE - 10 -
11.07.2019 15:00:00 29,0 21,0 26 14 ESE - 10 -
11.07.2019 14:00:00 28,9 21,0 24 13 E 1011,4 10 -
11.07.2019 13:00:00 29,0 22,0 24 13 ESE - 10 -
11.07.2019 12:00:00 30,0 20,0 18 10 E - 10 -
11.07.2019 11:00:00 29,0 18,5 16 9 E 1011,3 10 0,0
11.07.2019 10:00:00 30,0 17,0 18 10 ENE - 10 -
11.07.2019 09:00:00 29,0 16,0 4 2 - - 10 -
11.07.2019 08:00:00 26,8 16,2 9 5 WSW 1010,3 10 -
11.07.2019 07:00:00 23,0 17,0 2 1 S - 10 -

tt = temperature
td = dewpoint
ff = wind speed
dd = wind direction
ppp = reduced air pressure
vv = visibility
rr = precipitation

Next stations